NOO6525 SVMI-SKBO

Flight info

Callsign NOO6525
Flight time 1h 40m
Altitude 32000
Route BUTSA2 PBL UW40 BRM UW8 LFA UW34 CUC UW26 EJA/N0472F330 UW91 ILSEV ILSE5E
Aircraft B738/M-SDE2E3FGHIRWXY/LB1

Departure

Time 2026-05-07 16:20
Airport Maiquetía Simón Bolívar International Airport (SVMI)

Arrival

Time 2026-05-07 18:00
Airport El Dorado International Airport (SKBO)
Time Latitude Longitude Altitude Speed Heading
2026-05-07 15:52 10.59834 -67.00607 248 ft 0 kts 178°
2026-05-07 16:12 10.59848 -67.00608 247 ft 2 kts 178°
2026-05-07 16:12 10.59863 -67.00608 247 ft 2 kts 178°
2026-05-07 16:12 10.59878 -67.00609 247 ft 2 kts 178°
2026-05-07 16:12 10.59893 -67.00607 246 ft 2 kts 204°
2026-05-07 16:13 10.59905 -67.00599 246 ft 2 kts 223°
2026-05-07 16:13 10.59915 -67.00587 247 ft 2 kts 244°
2026-05-07 16:13 10.59919 -67.00572 247 ft 2 kts 265°
2026-05-07 16:13 10.59919 -67.00557 247 ft 2 kts 269°
2026-05-07 16:14 10.59920 -67.00542 247 ft 2 kts 268°
2026-05-07 16:14 10.59920 -67.00526 247 ft 2 kts 268°
2026-05-07 16:14 10.59920 -67.00523 247 ft 0 kts 268°
2026-05-07 16:16 10.59919 -67.00548 247 ft 9 kts 268°
2026-05-07 16:16 10.59917 -67.00661 245 ft 20 kts 269°
2026-05-07 16:16 10.59913 -67.00828 241 ft 25 kts 268°
2026-05-07 16:17 10.59909 -67.00998 236 ft 23 kts 268°
2026-05-07 16:17 10.59904 -67.01146 230 ft 19 kts 269°
2026-05-07 16:17 10.59923 -67.01241 227 ft 11 kts 335°
2026-05-07 16:17 10.60008 -67.01249 227 ft 13 kts 357°
2026-05-07 16:18 10.60108 -67.01255 227 ft 15 kts 356°
2026-05-07 16:18 10.60208 -67.01260 228 ft 12 kts 358°
2026-05-07 16:18 10.60248 -67.01262 229 ft 0 kts 358°
2026-05-07 16:18 10.60289 -67.01263 229 ft 13 kts
2026-05-07 16:19 10.60367 -67.01241 231 ft 9 kts 50°
2026-05-07 16:19 10.60377 -67.01190 233 ft 5 kts 86°
2026-05-07 16:19 10.60378 -67.01179 233 ft 0 kts 86°
2026-05-07 16:19 10.60387 -67.00948 241 ft 67 kts 87°
2026-05-07 16:20 10.60408 -67.00246 243 ft 130 kts 86°
2026-05-07 16:20 10.60432 -66.99150 248 ft 177 kts 88°
2026-05-07 16:20 10.60473 -66.97892 922 ft 174 kts 91°
2026-05-07 16:20 10.60357 -66.96659 1466 ft 184 kts 90°
2026-05-07 16:21 10.60593 -66.95351 1890 ft 194 kts 64°
2026-05-07 16:21 10.61151 -66.94041 2176 ft 212 kts 72°
2026-05-07 16:21 10.61427 -66.92528 2685 ft 222 kts 80°
2026-05-07 16:21 10.61892 -66.91013 3137 ft 237 kts 60°
2026-05-07 16:22 10.63116 -66.89854 3736 ft 253 kts 30°
2026-05-07 16:22 10.64878 -66.89488 4303 ft 270 kts 357°
2026-05-07 16:22 10.66713 -66.89930 5016 ft 274 kts 346°
2026-05-07 16:22 10.68573 -66.90224 5650 ft 276 kts
2026-05-07 16:23 10.70525 -66.90138 6318 ft 280 kts
2026-05-07 16:23 10.72465 -66.90044 6919 ft 286 kts
2026-05-07 16:23 10.74486 -66.89988 7355 ft 295 kts
2026-05-07 16:23 10.76467 -66.89937 8418 ft 283 kts
2026-05-07 16:24 10.78443 -66.89871 9092 ft 287 kts
2026-05-07 16:24 10.80416 -66.89806 9920 ft 286 kts 360°
2026-05-07 16:24 10.82406 -66.90232 10282 ft 308 kts 336°
2026-05-07 16:24 10.84154 -66.91641 10385 ft 336 kts 307°
2026-05-07 16:25 10.85129 -66.93872 10581 ft 358 kts 280°
2026-05-07 16:25 10.85094 -66.96452 10744 ft 375 kts 258°
2026-05-07 16:25 10.84615 -66.99090 11177 ft 385 kts 261°
2026-05-07 16:25 10.84381 -67.01848 11753 ft 390 kts 267°
2026-05-07 16:26 10.84291 -67.04596 12276 ft 397 kts 268°
2026-05-07 16:26 10.84230 -67.07439 12938 ft 399 kts 269°
2026-05-07 16:26 10.84184 -67.10247 13580 ft 401 kts 269°
2026-05-07 16:26 10.84161 -67.12161 14004 ft 403 kts 269°
2026-05-07 16:27 10.84128 -67.15958 14864 ft 405 kts 270°
2026-05-07 16:27 10.84044 -67.18842 15522 ft 407 kts 265°
2026-05-07 16:27 10.83690 -67.21675 16126 ft 409 kts 259°
2026-05-07 16:27 10.83016 -67.24520 16753 ft 410 kts 254°
2026-05-07 16:28 10.82256 -67.27301 17324 ft 412 kts 255°
2026-05-07 16:28 10.81503 -67.30114 17852 ft 415 kts 255°
2026-05-07 16:28 10.80740 -67.32963 18427 ft 416 kts 255°
2026-05-07 16:28 10.79966 -67.35809 18967 ft 418 kts 255°
2026-05-07 16:29 10.79193 -67.38625 19481 ft 420 kts 255°
2026-05-07 16:29 10.78402 -67.41497 19996 ft 421 kts 255°
2026-05-07 16:29 10.77633 -67.44284 20493 ft 423 kts 255°
2026-05-07 16:29 10.76830 -67.47194 20967 ft 425 kts 255°
2026-05-07 16:30 10.76036 -67.50067 21434 ft 426 kts 255°
2026-05-07 16:30 10.75238 -67.52949 21903 ft 428 kts 255°
2026-05-07 16:30 10.74432 -67.55862 22352 ft 429 kts 255°
2026-05-07 16:30 10.73614 -67.58810 22767 ft 431 kts 255°
2026-05-07 16:31 10.72800 -67.61745 23186 ft 433 kts 255°
2026-05-07 16:31 10.71980 -67.64702 23561 ft 435 kts 255°
2026-05-07 16:31 10.71150 -67.67694 23949 ft 437 kts 255°
2026-05-07 16:31 10.70327 -67.70660 24336 ft 438 kts 255°
2026-05-07 16:32 10.69492 -67.73663 24736 ft 439 kts 255°
2026-05-07 16:32 10.68663 -67.76646 25111 ft 440 kts 255°
2026-05-07 16:32 10.67830 -67.79639 25455 ft 442 kts 255°
2026-05-07 16:32 10.67003 -67.82611 25811 ft 443 kts 255°
2026-05-07 16:33 10.66041 -67.85593 26149 ft 445 kts 249°
2026-05-07 16:33 10.64739 -67.88426 26477 ft 447 kts 241°
2026-05-07 16:33 10.62955 -67.91024 26818 ft 449 kts 231°
2026-05-07 16:33 10.60876 -67.93407 27169 ft 449 kts 229°
2026-05-07 16:34 10.58780 -67.95776 27461 ft 451 kts 230°
2026-05-07 16:34 10.56700 -67.98188 27766 ft 451 kts 230°
2026-05-07 16:34 10.54654 -68.00569 28036 ft 453 kts 230°
2026-05-07 16:34 10.52558 -68.02992 28267 ft 455 kts 230°
2026-05-07 16:35 10.50588 -68.05516 28550 ft 454 kts 237°
2026-05-07 16:35 10.48898 -68.08177 29017 ft 449 kts 240°
2026-05-07 16:35 10.47436 -68.10939 29403 ft 446 kts 247°
2026-05-07 16:35 10.46334 -68.13883 29818 ft 442 kts 252°
2026-05-07 16:36 10.45355 -68.16833 30224 ft 440 kts 252°
2026-05-07 16:36 10.44349 -68.19748 30514 ft 440 kts 251°
2026-05-07 16:36 10.43313 -68.22680 30844 ft 439 kts 251°
2026-05-07 16:36 10.42302 -68.25563 31177 ft 437 kts 252°
2026-05-07 16:37 10.41283 -68.28504 31494 ft 436 kts 252°
2026-05-07 16:37 10.40292 -68.31374 31786 ft 435 kts 252°
2026-05-07 16:37 10.39282 -68.34294 32048 ft 435 kts 252°
2026-05-07 16:38 10.37261 -68.40115 32074 ft 436 kts 252°
2026-05-07 16:38 10.35268 -68.45878 32074 ft 435 kts 252°
2026-05-07 16:39 10.33265 -68.51678 32074 ft 435 kts 252°
2026-05-07 16:39 10.31267 -68.57452 32074 ft 436 kts 252°
2026-05-07 16:40 10.29248 -68.63284 32074 ft 436 kts 252°
2026-05-07 16:40 10.27242 -68.69076 32074 ft 436 kts 252°
2026-05-07 16:41 10.25207 -68.74943 32074 ft 437 kts 252°
2026-05-07 16:41 10.23189 -68.80763 32074 ft 438 kts 252°
2026-05-07 16:42 10.21166 -68.86591 32074 ft 439 kts 252°
2026-05-07 16:42 10.19122 -68.92473 32075 ft 440 kts 252°
2026-05-07 16:43 10.17080 -68.98346 32078 ft 441 kts 252°
2026-05-07 16:43 10.15037 -69.04222 32083 ft 442 kts 252°
2026-05-07 16:44 10.12990 -69.10105 32090 ft 442 kts 252°
2026-05-07 16:44 10.10940 -69.15993 32095 ft 442 kts 252°
2026-05-07 16:45 10.08942 -69.21725 32099 ft 443 kts 252°
2026-05-07 16:45 10.06875 -69.27657 32101 ft 444 kts 252°
2026-05-07 16:46 10.04793 -69.33595 32101 ft 445 kts 251°
2026-05-07 16:46 10.02156 -69.39317 32101 ft 447 kts 244°
2026-05-07 16:47 9.99273 -69.44904 32102 ft 446 kts 245°
2026-05-07 16:47 9.96434 -69.50522 32101 ft 445 kts 244°
2026-05-07 16:48 9.93579 -69.56114 32101 ft 446 kts 244°
2026-05-07 16:48 9.90738 -69.61685 32101 ft 446 kts 244°
2026-05-07 16:49 9.87875 -69.67293 32101 ft 447 kts 244°
2026-05-07 16:49 9.85015 -69.72892 32100 ft 447 kts 244°
2026-05-07 16:50 9.82126 -69.78539 32101 ft 447 kts 244°
2026-05-07 16:50 9.79261 -69.84138 32101 ft 448 kts 244°
2026-05-07 16:51 9.76381 -69.89772 32090 ft 448 kts 244°
2026-05-07 16:51 9.73502 -69.95397 32077 ft 447 kts 244°
2026-05-07 16:52 9.70629 -70.01009 32064 ft 447 kts 244°
2026-05-07 16:52 9.67759 -70.06596 32052 ft 448 kts 244°
2026-05-07 16:53 9.64884 -70.12212 32047 ft 448 kts 244°
2026-05-07 16:53 9.62010 -70.17818 32047 ft 447 kts 244°
2026-05-07 16:54 9.59118 -70.23453 32047 ft 448 kts 244°
2026-05-07 16:54 9.56250 -70.29041 32047 ft 448 kts 244°
2026-05-07 16:55 9.53356 -70.34672 32047 ft 448 kts 244°
2026-05-07 16:55 9.50464 -70.40296 32047 ft 449 kts 244°
2026-05-07 16:56 9.47577 -70.45915 32047 ft 450 kts 244°
2026-05-07 16:56 9.43252 -70.54322 32047 ft 450 kts 244°
2026-05-07 16:57 9.39880 -70.59686 32047 ft 451 kts 236°
2026-05-07 16:57 9.36246 -70.64886 32047 ft 452 kts 237°
2026-05-07 16:58 9.32659 -70.70128 32047 ft 452 kts 236°
2026-05-07 16:58 9.29033 -70.75397 32047 ft 452 kts 236°
2026-05-07 16:59 9.25437 -70.80624 32047 ft 452 kts 236°
2026-05-07 16:59 9.21839 -70.85855 32041 ft 452 kts 236°
2026-05-07 17:00 9.18248 -70.91073 32035 ft 452 kts 236°
2026-05-07 17:00 9.14632 -70.96325 32029 ft 452 kts 236°
2026-05-07 17:01 9.11045 -71.01532 32023 ft 453 kts 236°
2026-05-07 17:01 9.07428 -71.06782 32020 ft 453 kts 236°
2026-05-07 17:02 9.03801 -71.12044 32020 ft 453 kts 236°
2026-05-07 17:02 9.00209 -71.17250 32020 ft 454 kts 236°
2026-05-07 17:03 8.96613 -71.22463 32020 ft 454 kts 236°
2026-05-07 17:03 8.92992 -71.27712 32020 ft 454 kts 236°
2026-05-07 17:04 8.89394 -71.32924 32020 ft 454 kts 236°
2026-05-07 17:04 8.85759 -71.38185 32020 ft 454 kts 236°
2026-05-07 17:05 8.82130 -71.43434 32020 ft 453 kts 236°
2026-05-07 17:05 8.78521 -71.48652 32020 ft 453 kts 236°
2026-05-07 17:06 8.74901 -71.53884 32020 ft 453 kts 236°
2026-05-07 17:06 8.71300 -71.59087 32020 ft 453 kts 236°
2026-05-07 17:07 8.67685 -71.64309 32020 ft 453 kts 236°
2026-05-07 17:07 8.64065 -71.69536 32020 ft 453 kts 236°
2026-05-07 17:08 8.60465 -71.74731 32020 ft 452 kts 236°
2026-05-07 17:08 8.56853 -71.79942 32020 ft 452 kts 236°
2026-05-07 17:09 8.53239 -71.85152 32020 ft 452 kts 236°
2026-05-07 17:09 8.49620 -71.90368 32020 ft 451 kts 236°
2026-05-07 17:10 8.45972 -71.95625 32020 ft 452 kts 236°
2026-05-07 17:10 8.42380 -72.00800 32019 ft 451 kts 236°
2026-05-07 17:11 8.38752 -72.06024 32014 ft 451 kts 236°
2026-05-07 17:11 8.35140 -72.11224 32008 ft 451 kts 236°
2026-05-07 17:12 8.31554 -72.16384 32002 ft 450 kts 236°
2026-05-07 17:12 8.27949 -72.21568 31996 ft 450 kts 236°
2026-05-07 17:13 8.24069 -72.26604 31992 ft 451 kts 228°
2026-05-07 17:13 8.19298 -72.30746 31993 ft 453 kts 218°
2026-05-07 17:14 8.14346 -72.34670 31993 ft 453 kts 219°
2026-05-07 17:14 8.09423 -72.38609 31993 ft 453 kts 219°
2026-05-07 17:15 8.04491 -72.42520 31993 ft 453 kts 219°
2026-05-07 17:15 7.99516 -72.46460 31993 ft 453 kts 219°
2026-05-07 17:16 7.94718 -72.50530 31993 ft 451 kts 225°
2026-05-07 17:16 7.90699 -72.55335 31994 ft 450 kts 236°
2026-05-07 17:17 7.87073 -72.60504 31993 ft 450 kts 235°
2026-05-07 17:17 7.83415 -72.65649 31993 ft 450 kts 235°
2026-05-07 17:18 7.79805 -72.70785 31993 ft 450 kts 235°
2026-05-07 17:18 7.76179 -72.75957 31993 ft 451 kts 235°
2026-05-07 17:19 7.72562 -72.81122 31993 ft 450 kts 235°
2026-05-07 17:19 7.68957 -72.86275 31993 ft 450 kts 235°
2026-05-07 17:20 7.65350 -72.91429 31993 ft 451 kts 235°
2026-05-07 17:20 7.61707 -72.96638 31993 ft 451 kts 235°
2026-05-07 17:21 7.58097 -73.01796 32010 ft 451 kts 235°
2026-05-07 17:21 7.54489 -73.06951 32028 ft 452 kts 235°
2026-05-07 17:22 7.50850 -73.12146 32045 ft 452 kts 235°
2026-05-07 17:22 7.47213 -73.17342 32062 ft 452 kts 235°
2026-05-07 17:23 7.43620 -73.22472 32073 ft 452 kts 235°
2026-05-07 17:23 7.39981 -73.27666 32074 ft 452 kts 235°
2026-05-07 17:24 7.36334 -73.32869 32074 ft 452 kts 235°
2026-05-07 17:24 7.32691 -73.38065 32073 ft 452 kts 235°
2026-05-07 17:25 7.29051 -73.43254 32074 ft 453 kts 235°
2026-05-07 17:25 7.25368 -73.48502 32074 ft 453 kts 235°
2026-05-07 17:26 7.21732 -73.53684 32074 ft 453 kts 235°
2026-05-07 17:26 7.18071 -73.58899 32074 ft 453 kts 235°
2026-05-07 17:27 7.14456 -73.64047 32074 ft 452 kts 235°
2026-05-07 17:27 7.10806 -73.69240 32074 ft 453 kts 235°
2026-05-07 17:28 7.07134 -73.74460 32074 ft 453 kts 234°
2026-05-07 17:28 7.02611 -73.78841 32077 ft 455 kts 213°
2026-05-07 17:29 6.96924 -73.81673 32071 ft 456 kts 197°
2026-05-07 17:29 6.90651 -73.82861 32074 ft 457 kts 190°
2026-05-07 17:30 6.84398 -73.84009 32074 ft 456 kts 191°
2026-05-07 17:30 6.78169 -73.85175 32074 ft 455 kts 191°
2026-05-07 17:31 6.71903 -73.86343 32074 ft 455 kts 191°
2026-05-07 17:31 6.65687 -73.87507 32083 ft 454 kts 191°
2026-05-07 17:32 6.59463 -73.88671 32093 ft 454 kts 191°
2026-05-07 17:32 6.54314 -73.89634 32101 ft 454 kts 191°
2026-05-07 17:33 6.47028 -73.90997 32101 ft 453 kts 191°
2026-05-07 17:33 6.40836 -73.92154 32101 ft 453 kts 191°
2026-05-07 17:34 6.34646 -73.93313 32110 ft 453 kts 191°
2026-05-07 17:34 6.28427 -73.94474 32119 ft 453 kts 191°
2026-05-07 17:35 6.22243 -73.95628 32128 ft 452 kts 191°
2026-05-07 17:35 6.16048 -73.96789 32137 ft 452 kts 191°
2026-05-07 17:36 6.09857 -73.97946 32147 ft 452 kts 191°
2026-05-07 17:36 6.03673 -73.99102 32162 ft 452 kts 191°
2026-05-07 17:37 5.97468 -74.00269 32175 ft 452 kts 191°
2026-05-07 17:37 5.91274 -74.01449 32177 ft 452 kts 191°
2026-05-07 17:38 5.85160 -74.02609 32097 ft 450 kts 191°
2026-05-07 17:38 5.82110 -74.03188 31343 ft 448 kts 191°
2026-05-07 17:38 5.79038 -74.03770 30478 ft 449 kts 191°
2026-05-07 17:39 5.75985 -74.04349 29574 ft 449 kts 191°
2026-05-07 17:39 5.72902 -74.04933 28659 ft 449 kts 191°
2026-05-07 17:39 5.69876 -74.05507 28021 ft 443 kts 191°
2026-05-07 17:39 5.66850 -74.06081 27341 ft 437 kts 190°
2026-05-07 17:40 5.63903 -74.06641 26673 ft 433 kts 190°
2026-05-07 17:40 5.60959 -74.07199 25998 ft 428 kts 190°
2026-05-07 17:40 5.58011 -74.07758 25315 ft 424 kts 190°
2026-05-07 17:40 5.55135 -74.08304 24646 ft 420 kts 190°
2026-05-07 17:41 5.52296 -74.08843 23983 ft 416 kts 190°
2026-05-07 17:41 5.49435 -74.09385 23312 ft 416 kts 190°
2026-05-07 17:41 5.46594 -74.09932 22695 ft 414 kts 192°
2026-05-07 17:41 5.43879 -74.10768 22289 ft 405 kts 201°
2026-05-07 17:42 5.41425 -74.12056 22179 ft 388 kts 212°
2026-05-07 17:42 5.39357 -74.13711 22186 ft 372 kts 224°
2026-05-07 17:42 5.37636 -74.15599 21863 ft 371 kts 228°
2026-05-07 17:42 5.35931 -74.17575 21377 ft 378 kts 227°
2026-05-07 17:43 5.34182 -74.19543 20861 ft 375 kts 227°
2026-05-07 17:43 5.32445 -74.21484 20352 ft 371 kts 227°
2026-05-07 17:43 5.30717 -74.23431 19840 ft 368 kts 227°
2026-05-07 17:43 5.29046 -74.25317 19482 ft 360 kts 227°
2026-05-07 17:44 5.27375 -74.27203 19324 ft 362 kts 227°
2026-05-07 17:44 5.25650 -74.29146 18731 ft 374 kts 228°
2026-05-07 17:44 5.24201 -74.31257 18478 ft 363 kts 245°
2026-05-07 17:44 5.23553 -74.33680 18202 ft 353 kts 268°
2026-05-07 17:45 5.23686 -74.36101 18039 ft 341 kts 276°
2026-05-07 17:45 5.23896 -74.38474 17996 ft 338 kts 274°
2026-05-07 17:45 5.24050 -74.40837 17993 ft 342 kts 274°
2026-05-07 17:45 5.24215 -74.43169 17992 ft 343 kts 274°
2026-05-07 17:46 5.24227 -74.45589 17989 ft 343 kts 264°
2026-05-07 17:46 5.23739 -74.47977 17993 ft 343 kts 251°
2026-05-07 17:46 5.22910 -74.50217 17993 ft 343 kts 248°
2026-05-07 17:46 5.22065 -74.52447 17992 ft 342 kts 249°
2026-05-07 17:47 5.21231 -74.54729 17992 ft 342 kts 249°
2026-05-07 17:47 5.20396 -74.56973 17992 ft 342 kts 247°
2026-05-07 17:47 5.19382 -74.59119 17992 ft 342 kts 238°
2026-05-07 17:47 5.17962 -74.61041 17993 ft 341 kts 225°
2026-05-07 17:48 5.16232 -74.62698 17994 ft 340 kts 221°
2026-05-07 17:48 5.14487 -74.64328 17993 ft 340 kts 222°
2026-05-07 17:48 5.12777 -74.65971 17992 ft 340 kts 222°
2026-05-07 17:48 5.11032 -74.67637 17993 ft 340 kts 221°
2026-05-07 17:49 5.09253 -74.69255 17991 ft 339 kts 217°
2026-05-07 17:49 5.07299 -74.70561 17991 ft 337 kts 204°
2026-05-07 17:49 5.05108 -74.71405 17997 ft 335 kts 194°
2026-05-07 17:49 5.02890 -74.72067 17993 ft 335 kts 195°
2026-05-07 17:50 5.00624 -74.72629 17988 ft 333 kts 185°
2026-05-07 17:50 4.98335 -74.72518 17993 ft 327 kts 161°
2026-05-07 17:50 4.96368 -74.71478 18004 ft 322 kts 139°
2026-05-07 17:50 4.94748 -74.69943 17888 ft 314 kts 129°
2026-05-07 17:51 4.93663 -74.68085 17560 ft 307 kts 105°
2026-05-07 17:51 4.93430 -74.65933 17199 ft 314 kts 90°
2026-05-07 17:51 4.93321 -74.63768 16782 ft 311 kts 96°
2026-05-07 17:51 4.93077 -74.61633 16386 ft 308 kts 96°
2026-05-07 17:52 4.92862 -74.59477 15986 ft 304 kts 95°
2026-05-07 17:52 4.92678 -74.57400 15601 ft 301 kts 95°
2026-05-07 17:52 4.92487 -74.55278 15210 ft 305 kts 95°
2026-05-07 17:52 4.92296 -74.53154 14805 ft 304 kts 95°
2026-05-07 17:53 4.92114 -74.51076 14417 ft 300 kts 95°
2026-05-07 17:53 4.91932 -74.49004 14030 ft 297 kts 95°
2026-05-07 17:53 4.91751 -74.46929 13643 ft 294 kts 95°
2026-05-07 17:53 4.91572 -74.44892 13298 ft 290 kts 95°
2026-05-07 17:54 4.91347 -74.42911 13116 ft 279 kts 103°
2026-05-07 17:54 4.90592 -74.41185 12887 ft 272 kts 127°
2026-05-07 17:54 4.89222 -74.39877 12536 ft 270 kts 140°
2026-05-07 17:54 4.87762 -74.38673 12179 ft 268 kts 138°
2026-05-07 17:55 4.86474 -74.37376 12002 ft 258 kts 127°
2026-05-07 17:55 4.85461 -74.35960 11990 ft 239 kts 125°
2026-05-07 17:55 4.84500 -74.34671 12000 ft 220 kts 127°
2026-05-07 17:55 4.83614 -74.33505 11977 ft 202 kts 127°
2026-05-07 17:56 4.82768 -74.32391 11996 ft 200 kts 127°
2026-05-07 17:56 4.81940 -74.31300 11948 ft 193 kts 127°
2026-05-07 17:56 4.81150 -74.30257 11677 ft 176 kts 126°
2026-05-07 17:56 4.80419 -74.29292 11456 ft 176 kts 127°
2026-05-07 17:57 4.79671 -74.28303 11204 ft 178 kts 126°
2026-05-07 17:57 4.79175 -74.27648 11037 ft 177 kts 127°
2026-05-07 17:57 4.78187 -74.26343 10711 ft 176 kts 126°
2026-05-07 17:57 4.77449 -74.25372 10468 ft 175 kts 126°
2026-05-07 17:58 4.76713 -74.24392 10227 ft 174 kts 127°
2026-05-07 17:58 4.75977 -74.23425 9988 ft 174 kts 126°
2026-05-07 17:58 4.75247 -74.22457 9750 ft 173 kts 127°
2026-05-07 17:58 4.74522 -74.21497 9515 ft 172 kts 128°
2026-05-07 17:59 4.73792 -74.20543 9281 ft 172 kts 126°
2026-05-07 17:59 4.73072 -74.19583 9049 ft 171 kts 127°
2026-05-07 17:59 4.72356 -74.18643 8821 ft 170 kts 126°
2026-05-07 17:59 4.71641 -74.17687 8604 ft 170 kts 127°
2026-05-07 18:00 4.70918 -74.16746 8413 ft 168 kts 125°
2026-05-07 18:00 4.70272 -74.15890 8363 ft 128 kts 126°
2026-05-07 18:00 4.69869 -74.15356 8363 ft 67 kts 127°
2026-05-07 18:00 4.69724 -74.15137 8363 ft 18 kts 91°
2026-05-07 18:01 4.69711 -74.15025 8363 ft 12 kts 99°
2026-05-07 18:01 4.69709 -74.15013 8363 ft 0 kts 98°
2026-05-07 18:02 4.69708 -74.15005 8363 ft 4 kts 97°
2026-05-07 18:02 4.69700 -74.14940 8363 ft 13 kts 97°
2026-05-07 18:02 4.69709 -74.14846 8363 ft 12 kts 36°
2026-05-07 18:03 4.69768 -74.14798 8363 ft 10 kts 41°
2026-05-07 18:03 4.69819 -74.14757 8363 ft 8 kts 37°
2026-05-07 18:03 4.69845 -74.14720 8363 ft 6 kts 108°
2026-05-07 18:03 4.69824 -74.14686 8363 ft 5 kts 129°
2026-05-07 18:04 4.69800 -74.14662 8363 ft 2 kts 145°
2026-05-07 18:04 4.69778 -74.14665 8363 ft 3 kts 211°
2026-05-07 18:04 4.69760 -74.14677 8363 ft 1 kts 216°
2026-05-07 18:04 4.69758 -74.14678 8363 ft 0 kts 216°